DW5487 Weather Reports


time (UTC)temp
C
wind
direction
speed
KPH
gust
KPH
rain 1hr
cm
rain 24hr
cm
rain mn
cm
humidity
%
barometer
mb
20260505061903 12 238 6.4 17.7 0.13 0.74 0.58 96 978.7
20260505061358 12 205 6.4 12.9 0.13 0.74 0.58 96 978.7
20260505060900 12 216 6.4 14.5 0.13 0.74 0.58 96 978.7
20260505060359 12 215 6.4 14.5 0.13 0.74 0.58 96 978.6
20260505055857 12 248 6.4 14.5 0.13 0.74 0.58 96 978.7
20260505055400 12 70 6.4 12.9 0.13 0.74 0.58 96 978.6
20260505054858 12 115 8.0 19.3 0.13 0.74 0.58 96 978.7
20260505054357 12 210 9.7 20.9 0.15 0.74 0.58 96 978.6
20260505053902 12 155 11.3 20.9 0.15 0.74 0.58 96 978.7
20260505052857 12 195 6.4 14.5 0.08 0.66 0.51 96 978.6
20260505051900 12 186 4.8 9.7 0.05 0.61 0.46 96 978.6
20260505051359 12 228 4.8 11.3 0.05 0.61 0.46 96 978.6
20260505050858 12 219 4.8 11.3 0.05 0.61 0.46 96 978.6
20260505050350 11 213 4.8 9.7 0.05 0.61 0.46 96 978.6
20260505041343 11 211 4.8 11.3 0.10 0.61 0.43 96 978.2
20260505040846 11 96 6.4 11.3 0.10 0.61 0.43 96 978.3
20260505040345 11 155 6.4 14.5 0.13 0.61 0.43 96 978.2
20260505035844 11 191 6.4 14.5 0.13 0.58 0.41 96 978.3
20260505035343 11 200 6.4 14.5 0.13 0.58 0.41 96 978.3
20260505034841 11 182 6.4 14.5 0.15 0.58 0.41 96 978.3
20260505034339 11 212 6.4 12.9 0.15 0.58 0.41 96 978.4
20260505033840 11 144 6.4 20.9 0.18 0.58 0.41 96 978.5
20260505033339 11 211 8.0 20.9 0.18 0.56 0.38 96 978.5
20260505032843 11 259 8.0 16.1 0.20 0.56 0.38 96 978.6
20260505032342 11 238 6.4 16.1 0.23 0.53 0.36 96 978.7
20260505031841 11 206 4.8 16.1 0.23 0.51 0.33 96 978.8
20260505031339 11 169 4.8 11.3 0.23 0.51 0.33 96 978.7
20260505030843 11 164 4.8 12.9 0.23 0.51 0.33 96 978.9
20260505030343 11 235 4.8 12.9 0.20 0.48 0.30 96 978.8
20260505025840 11 207 3.2 11.3 0.18 0.46 0.28 96 978.8
20260505025340 11 193 3.2 9.7 0.18 0.46 0.28 96 978.9
20260505024840 11 215 3.2 9.7 0.15 0.43 0.25 96 979.0
20260505023833 12 210 3.2 8.0 0.13 0.41 0.23 96 979.0
20260505023336 12 95 1.6 8.0 0.10 0.38 0.20 96 979.0
20260505022834 12 169 1.6 6.4 0.08 0.36 0.18 96 979.0
20260505022336 12 239 1.6 6.4 0.05 0.33 0.15 96 979.0
20260505021333 12 146 1.6 8.0 0.00 0.28 0.10 96 979.0
20260505020831 12 138 3.2 8.0 0.00 0.28 0.10 96 979.1
20260505020332 12 184 1.6 8.0 0.00 0.28 0.10 96 979.2
20260505014834 12 224 4.8 9.7 0.03 0.28 0.10 96 979.4
20260505013831 12 196 3.2 8.0 0.05 0.28 0.10 96 979.4
20260505013333 12 242 1.6 4.8 0.05 0.28 0.10 95 979.5
20260505012835 12 257 3.2 6.4 0.05 0.28 0.10 96 979.5
20260505012334 12 204 3.2 8.0 0.05 0.28 0.10 95 979.4
20260505011830 12 179 3.2 8.0 0.05 0.28 0.10 95 979.5
20260505011330 12 214 1.6 4.8 0.05 0.28 0.10 95 979.6
20260505010832 12 226 1.6 3.2 0.08 0.28 0.10 96 979.6
20260505010331 12 152 1.6 4.8 0.08 0.28 0.10 95 979.7
20260505005830 12 213 0.0 4.8 0.10 0.28 0.10 95 979.7
20260505005330 12 229 0.0 1.6 0.10 0.28 0.10 95 979.8
20260505004829 12 229 0.0 1.6 0.08 0.25 0.08 95 979.8
20260505004329 12 224 1.6 3.2 0.05 0.23 0.05 95 979.9
20260505003826 12 217 0.0 3.2 0.05 0.23 0.05 95 979.9
20260505003324 12 208 0.0 0.0 0.05 0.23 0.05 95 980.0
20260505002822 12 225 0.0 1.6 0.05 0.23 0.05 94 980.0
20260505002322 12 226 1.6 4.8 0.05 0.23 0.05 94 980.2
20260505001822 12 244 1.6 4.8 0.05 0.23 0.05 92 980.2
20260505000821 12 206 1.6 3.2 0.03 0.20 0.05 91 980.2
20260505000322 12 224 0.0 3.2 0.03 0.20 0.03 92 980.2
20260504235321 12 184 1.6 4.8 0.00 0.18 0.00 92 980.2
20260504234820 13 228 0.0 4.8 0.00 0.18 0.00 92 980.3
20260504234316 13 234 0.0 1.6 0.00 0.18 0.00 92 980.3
20260504233816 13 222 0.0 3.2 0.00 0.18 0.00 92 980.4
20260504233316 13 224 0.0 3.2 0.00 0.18 0.00 92 980.4
20260504232816 13 225 0.0 1.6 0.00 0.18 0.00 92 980.5
20260504232315 13 155 0.0 4.8 0.00 0.18 0.00 92 980.5
20260504230812 13 251 1.6 4.8 0.00 0.18 0.00 92 980.9
20260504230309 13 150 1.6 4.8 0.00 0.18 0.00 92 980.9
20260504225806 13 199 1.6 4.8 0.00 0.18 0.00 92 980.8
20260504224805 13 150 1.6 4.8 0.00 0.18 0.00 92 981.1
20260504224306 13 182 0.0 3.2 0.00 0.18 0.00 91 981.1
20260504223802 13 202 0.0 0.0 0.00 0.18 0.00 91 981.1
20260504223302 13 219 0.0 0.0 0.00 0.18 0.00 91 981.2
20260504222803 13 121 0.0 0.0 0.00 0.18 0.00 91 981.3
20260504221758 13 201 0.0 0.0 0.00 0.18 0.00 91 981.3
20260504221252 13 221 0.0 1.6 0.00 0.18 0.00 91 981.3
20260504220747 13 236 0.0 1.6 0.03 0.18 0.00 91 981.3
20260504220243 13 217 0.0 1.6 0.05 0.18 0.00 91 981.4
20260504215744 13 215 0.0 1.6 0.08 0.18 0.18 91 981.4
20260504215244 13 220 0.0 1.6 0.10 0.18 0.18 91 981.4
20260504214740 13 224 0.0 0.0 0.13 0.18 0.18 91 981.4
20260504214235 13 224 0.0 1.6 0.15 0.18 0.18 91 981.4
20260504213737 13 224 0.0 1.6 0.15 0.18 0.18 90 981.4
20260504212735 13 250 0.0 1.6 0.15 0.18 0.18 90 981.5
20260504212232 13 217 0.0 1.6 0.15 0.18 0.18 89 981.5
20260504211729 13 216 0.0 3.2 0.15 0.18 0.18 88 981.5
20260504211229 13 160 0.0 3.2 0.15 0.18 0.18 88 981.5
20260504210729 13 82 0.0 3.2 0.15 0.15 0.15 87 981.7
20260504205726 13 210 0.0 1.6 0.08 0.10 0.10 86 981.8
20260504205225 13 211 0.0 1.6 0.05 0.08 0.08 86 981.9
20260504204226 13 205 1.6 3.2 0.03 0.05 0.05 85 981.9
20260504203724 13 238 1.6 4.8 0.00 0.03 0.03 85 981.9
20260504203223 13 217 0.0 4.8 0.00 0.03 0.03 84 981.8
20260504202722 13 250 1.6 4.8 0.00 0.03 0.03 84 981.8
20260504201725 13 257 0.0 1.6 0.00 0.03 0.03 83 981.8
20260504201222 13 147 0.0 0.0 0.00 0.03 0.03 83 981.7
20260504200720 13 123 0.0 0.0 0.00 0.03 0.03 83 981.8
20260504200219 13 160 0.0 0.0 0.00 0.03 0.03 83 981.8
20260504195221 13 159 0.0 0.0 0.00 0.03 0.03 83 981.8
20260504194715 13 141 0.0 1.6 0.00 0.03 0.03 82 981.7
20260504194213 13 141 0.0 1.6 0.00 0.03 0.03 82 981.7
20260504193716 13 141 0.0 1.6 0.00 0.03 0.03 82 981.5
20260504192713 13 203 0.0 3.2 0.00 0.03 0.03 82 981.6
20260504191712 13 217 1.6 4.8 0.00 0.03 0.03 81 981.5
20260504191209 14 226 1.6 4.8 0.00 0.03 0.03 80 981.5
20260504185708 14 224 3.2 6.4 0.00 0.03 0.03 80 981.5
20260504185208 14 229 3.2 6.4 0.00 0.03 0.03 79 981.4
20260504183709 15 230 3.2 8.0 0.00 0.03 0.03 77 981.4
20260504182708 15 297 4.8 11.3 0.00 0.03 0.03 77 981.5
20260504181703 15 238 1.6 6.4 0.00 0.03 0.03 76 981.5
20260504181205 15 243 3.2 12.9 0.00 0.03 0.03 75 981.6
20260504180702 15 262 4.8 12.9 0.00 0.03 0.03 75 981.4
20260504180202 15 270 3.2 8.0 0.00 0.03 0.03 74 981.5
20260504175205 15 215 4.8 8.0 0.00 0.03 0.03 73 981.4
20260504174203 16 225 4.8 9.7 0.00 0.03 0.03 72 981.3
20260504173158 16 232 4.8 9.7 0.00 0.03 0.03 71 981.4
20260504172700 16 219 6.4 11.3 0.00 0.03 0.03 70 981.4
20260504172157 16 241 6.4 12.9 0.00 0.03 0.03 69 981.4
20260504171701 16 216 9.7 17.7 0.00 0.03 0.03 68 981.4
20260504171158 16 253 9.7 19.3 0.00 0.03 0.03 67 981.4
20260504170658 16 221 8.0 19.3 0.00 0.03 0.03 66 981.3
20260504170158 17 232 8.0 16.1 0.00 0.03 0.03 65 981.3
20260504160211 18 247 4.8 14.5 0.00 0.03 0.03 60 981.4
20260504150654 17 205 6.4 16.1 0.00 0.03 0.03 63 981.5
20260504150151 17 244 6.4 14.5 0.00 0.03 0.03 65 981.6
20260504141138 18 209 9.7 19.3 0.00 0.03 0.03 52 981.6
20260504140636 18 274 8.0 17.7 0.00 0.03 0.03 51 981.6
20260504140134 18 205 8.0 17.7 0.00 0.03 0.03 50 981.6
20260504130627 19 220 11.3 20.9 0.00 0.03 0.03 56 981.8
20260504130122 19 196 12.9 24.1 0.00 0.03 0.03 55 982.0
20260504110114 20 172 9.7 19.3 0.00 0.03 0.03 57 982.6
20260504100557 19 205 8.0 17.7 0.00 0.03 0.03 52 982.9
20260504100113 19 167 6.4 16.1 0.00 0.03 0.03 52 983.0
20260504090108 16 97 3.2 9.7 0.00 0.03 0.03 69 983.1
20260504081046 15 27 3.2 6.4 0.00 0.03 0.03 87 983.2
20260504080549 15 28 4.8 6.4 0.00 0.03 0.03 87 983.2